TimePDT,TemperatureF,Dew PointF,Humidity,Sea Level PressureIn,VisibilityMPH,Wind Direction,Wind SpeedMPH,Gust SpeedMPH,PrecipitationIn,Events,Conditions,WindDirDegrees,DateUTC
12:53 AM,55.0,46.9,74,29.97,10.0,Calm,Calm,-,N/A,,Overcast,0,2011-10-02 07:53:00
1:53 AM,52.0,48.0,86,29.96,10.0,Calm,Calm,-,N/A,,Scattered Clouds,0,2011-10-02 08:53:00
2:53 AM,51.8,48.2,88,29.96,10.0,Calm,Calm,-,N/A,,Mostly Cloudy,0,2011-10-02 09:53:00
3:53 AM,53.1,50.0,89,29.96,10.0,Calm,Calm,-,N/A,,Overcast,0,2011-10-02 10:53:00
4:53 AM,53.1,48.9,86,29.96,10.0,Calm,Calm,-,N/A,,Overcast,0,2011-10-02 11:53:00
5:53 AM,53.1,46.9,80,29.94,10.0,Calm,Calm,-,N/A,,Overcast,0,2011-10-02 12:53:00
6:53 AM,53.1,46.9,80,29.95,10.0,NW,3.5,-,N/A,,Overcast,320,2011-10-02 13:53:00
7:53 AM,53.1,46.9,80,29.95,10.0,Calm,Calm,-,N/A,,Overcast,0,2011-10-02 14:53:00
8:53 AM,54.0,48.0,80,29.95,10.0,Calm,Calm,-,N/A,,Overcast,0,2011-10-02 15:53:00
9:53 AM,55.9,50.0,80,29.95,10.0,Calm,Calm,-,N/A,,Overcast,0,2011-10-02 16:53:00
10:53 AM,55.9,50.0,80,29.94,10.0,Calm,Calm,-,N/A,,Overcast,0,2011-10-02 17:53:00
11:53 AM,57.9,50.0,75,29.94,10.0,Calm,Calm,-,N/A,,Mostly Cloudy,0,2011-10-02 18:53:00
12:53 PM,60.1,50.0,69,29.92,10.0,NW,4.6,-,N/A,,Scattered Clouds,320,2011-10-02 19:53:00
1:53 PM,63.0,50.0,63,29.91,10.0,NW,4.6,-,N/A,,Scattered Clouds,310,2011-10-02 20:53:00
2:53 PM,64.0,50.0,60,29.90,10.0,South,5.8,-,N/A,,Mostly Cloudy,170,2011-10-02 21:53:00
3:53 PM,63.0,51.1,65,29.88,10.0,Variable,3.5,-,N/A,,Scattered Clouds,0,2011-10-02 22:53:00
4:53 PM,63.0,51.1,65,29.87,10.0,Calm,Calm,-,N/A,,Overcast,0,2011-10-02 23:53:00
5:53 PM,57.9,55.0,90,29.90,5.0,South,6.9,-,0.08,Rain,Rain,170,2011-10-03 00:53:00
6:53 PM,55.9,53.1,90,29.87,5.0,South,4.6,-,0.03,,Overcast,180,2011-10-03 01:53:00
7:53 PM,57.0,54.0,89,29.86,10.0,Calm,Calm,-,N/A,,Overcast,0,2011-10-03 02:53:00
8:53 PM,57.0,55.0,93,29.86,10.0,SE,3.5,-,0.01,Rain,Light Rain,130,2011-10-03 03:53:00
9:53 PM,57.2,53.6,88,29.86,10.0,SE,4.6,-,N/A,Rain,Light Rain,130,2011-10-03 04:53:00
10:53 PM,55.9,53.1,90,29.85,10.0,SE,3.5,-,0.02,Rain,Light Rain,130,2011-10-03 05:53:00
11:53 PM,55.9,53.1,90,29.83,10.0,SSE,4.6,-,0.00,Rain,Light Rain,160,2011-10-03 06:53:00